Location: Stamford Observatory
(41.1241°N, 73.5498°W)
Time: 02:27:23
(UTC-05:00)

Daily predictions for brighter satellites

Satellite Brightness Start Highest point End
(mag) Time Altitude Azimuth Time Altitude Azimuth Time Altitude Azimuth
H-2A R/B 4.2 03:23:24 47° SE 03:23:24 47° SE 03:48:37 10° E
COSMOS 2455 3.9 04:17:40 36° NNE 04:17:40 36° NNE 04:21:08 10° NNE
Cosmos 1844 Rocket 3.5 04:23:32 39° SE 04:24:52 47° ESE 04:30:12 10° NE
Centaur D-1A AC-31 3.9 04:30:35 10° S 04:32:14 12° SE 04:34:25 10° ESE
Lacrosse 5 2.6 04:33:46 48° SE 04:33:46 48° SE 04:37:23 10° SE
Okean-O 4.3 04:33:22 10° NNE 04:37:22 32° E 04:41:21 10° SSE
Cosmos 1709 Rocket 4.4 04:32:10 10° S 04:38:20 62° E 04:44:36 10° NNE
Cosmos 676 Rocket 4.2 04:40:15 64° SE 04:40:33 66° ESE 04:45:43 10° NNE
COSMO-SKYMED 1 3.6 04:39:26 10° SE 04:43:32 43° ENE 04:44:14 40° NE
Meteor 1-21 Rocket 4.4 04:44:28 28° N 04:47:42 75° E 04:53:25 10° SSE
Cosmos 1140 Rocket 3.9 04:45:22 20° S 04:48:51 61° ESE 04:53:55 10° NNE
COSMOS 2406 3.6 04:48:46 33° N 04:51:10 59° ENE 04:56:44 10° SE
Cosmos 1954 Rocket 4.1 04:49:39 31° S 04:52:07 71° ESE 04:57:18 10° NNE
DELTA 2 R/B (1) 3.5 04:52:14 75° SSW 04:52:23 75° S 04:57:59 10° E
USA 234 4.3 04:47:31 10° NE 04:52:48 27° NNW 04:52:58 27° NNW
NOAA 6 4.5 04:48:02 10° NNE 04:53:11 61° ESE 04:58:18 10° S
Nadezhda 1 Rocket 4.4 04:55:51 44° SW 04:55:51 44° SW 05:00:22 10° SSW
CZ-2C R/B 4.0 04:52:47 10° S 04:56:34 58° S 04:56:34 58° S
Meteor 2-13 Rocket 4.4 04:53:00 10° S 04:59:08 86° E 05:05:15 10° N
CZ-4C R/B 3.2 04:55:29 27° NNW 04:59:47 65° NE 05:07:44 10° SE
Shenzhou-11 Module 4.2 05:04:48 27° E 05:04:48 27° E 05:06:25 10° E
SL-14 R/B 3.9 05:05:18 40° NNE 05:06:20 54° E 05:10:05 10° SSE
Cosmos 1023 Rocket 4.3 05:06:14 23° SSW 05:09:25 86° WNW 05:14:33 10° NNE
Tiangong 2 3.4 05:11:25 18° SSE 05:11:59 19° SSE 05:14:21 10° E
BREEZE-M DEB (TANK) 4.3 05:12:28 28° N 05:13:05 29° NNE 05:19:18 10° E
SKYMED 3 4.4 05:09:08 10° SSE 05:13:29 86° W 05:14:35 50° NNW
CENTAUR R/B 4.0 05:16:43 21° NNW 05:16:43 21° NNW 05:21:53 10° NNE
Cosmos 1626 4.0 05:14:47 10° NNE 05:18:07 30° ENE 05:21:27 10° SE
Cosmos 1315 Rocket 2.9 05:21:08 24° N 05:23:27 73° E 05:27:25 10° SSE
BREEZE-M DEB (TANK) 3.0 05:25:04 29° NNE 05:25:04 29° NNE 05:27:21 10° NE
Feng Yun 1-1 Rocket 4.0 05:20:31 10° N 05:25:57 74° WNW 05:31:18 10° SSW
Cosmos 2263 Rocket 4.3 05:31:07 10° NNW 05:31:07 10° NNW 05:31:15 10° NNW
EO 1 Del DPAF 3.1 05:24:47 10° SSE 05:28:35 87° W 05:30:24 30° NNW
SKYMED 2 3.6 05:27:18 10° S 05:31:33 54° W 05:32:51 38° NW
Cosmos-2242 3.4 05:27:24 10° S 05:31:41 64° E 05:35:57 10° NNE
Cosmos 2181 Rocket 3.9 05:25:51 10° NNW 05:32:04 68° W 05:38:11 10° S
Cosmos 1408 Rocket 4.2 05:28:20 10° N 05:32:38 55° E 05:36:56 10° SSE
SJ-12 4.2 05:36:30 10° NNE 05:40:37 71° ESE 05:44:43 10° S
Cosmos 371 Rocket 3.3 05:36:44 12° NNW 05:41:13 83° ENE 05:46:06 10° SSE
Cosmos 1741 Rocket 4.0 05:37:41 10° SSW 05:42:57 88° ESE 05:48:13 10° NNE
Landsat 4 4.2 05:40:30 10° SSW 05:44:02 37° W 05:44:12 36° W
ATLAS CENTAUR R/B 2.6 05:41:47 14° NNW 05:45:00 38° NE 05:49:02 10° ESE
Cosmos 2278 Rocket 2.3 05:43:18 10° SSW 05:48:57 83° ESE 05:54:40 10° NNE
Cosmos 614 Rocket 4.3 05:44:52 10° SW 05:49:39 39° WNW 05:54:26 10° N
Timation 1 Rocket 4.3 05:44:11 10° SW 05:50:09 65° WNW 05:56:08 10° NNE
Cosmos 1328 3.8 05:51:54 10° NNW 05:55:51 59° W 05:59:46 10° S
Cosmos 1400 Rocket 4.3 05:56:54 20° WSW 05:56:54 20° WSW 05:59:02 10° SW
GPS 2-04 Rocket1 4.2 05:53:22 14° SW 05:56:36 34° S 06:00:30 10° ESE
Cosmos 1743 Rocket 4.5 05:53:13 10° N 05:57:26 49° E 06:01:38 10° SSE
CZ-2C R/B 2.3 05:53:12 10° N 05:57:40 52° WNW 06:02:11 10° SSW
IDEFIX/ARIANE 42P 2.9 05:52:45 10° N 05:57:40 41° WNW 06:02:35 10° SW
Abrixas rocket 3.4 05:56:23 22° NNW 05:57:45 32° NNE 06:00:43 10° E
SMAP 4.1 05:54:25 10° NNE 05:58:59 50° E 06:03:28 10° S
Cosmos 2151 4.0 05:55:24 10° N 05:59:35 48° E 06:03:44 10° SSE
Cosmos 1076 Rocket 4.2 05:57:33 17° NW 06:00:09 32° W 06:03:58 10° SSW
Cosmos 2058 3.8 05:56:00 10° N 06:00:09 52° E 06:04:14 10° SSE
COSMOS 2455 4.2 06:00:51 17° NW 06:01:53 18° NW 06:05:55 10° N
CSL-04 Rocket 4.3 06:00:03 10° NNE 06:05:23 59° ESE 06:10:36 10° S
Cosmos 2327 Rocket 4.4 06:01:43 10° SSW 06:07:56 75° W 06:14:05 10° N
Cosmos 1844 Rocket 3.6 06:05:21 14° WSW 06:08:59 26° NW 06:13:35 10° N
Cosmos 2154 Rocket 4.2 06:06:16 10° S 06:12:26 75° E 06:18:39 10° N
BREEZE-M DEB (TANK) 3.7 06:09:41 15° WNW 06:13:13 27° N 06:15:45 10° NE
Okean-O 3.7 06:10:09 10° NNW 06:13:41 23° WNW 06:17:10 10° WSW
CZ-3B R/B 4.4 06:11:46 14° NW 06:14:33 73° NE 06:26:53 10° SE
Lacrosse 5 3.5 06:13:01 14° W 06:14:42 16° WSW 06:17:43 10° SSW
Cosmos 1766 Rocket 4.0 06:11:47 10° NNW 06:15:53 40° W 06:19:59 10° SSW
Meteor 1-11 4.3 06:11:20 10° NNW 06:17:01 61° W 06:22:43 10° S
COSMO-SKYMED 1 4.1 06:17:09 10° SW 06:19:53 16° W 06:21:27 14° WNW
Thor Agena Rocket 3.5 06:14:47 10° S 06:19:59 75° WSW 06:25:18 10° NNW
Cosmos 2208 Rocket 4.1 06:14:46 10° NNW 06:20:10 63° WSW 06:25:32 10° S
Cosmos 1908 3.3 06:20:55 10° S 06:24:49 83° E 06:28:46 10° N
CZ-4 R/B 1.7 06:22:24 10° NNE 06:26:34 72° ESE 06:30:35 10° S
Cosmos 1703 3.4 06:24:53 10° NNW 06:28:45 52° W 06:32:35 10° S
Meteor 2-1 Rocket 4.2 06:25:31 10° S 06:31:01 83° W 06:36:37 10° N
Cosmos 2082 Rocket 2.4 06:25:34 10° NNW 06:31:13 74° ENE 06:36:48 10° SSE
Cosmos 2184 Rocket 4.3 06:26:34 10° SSW 06:32:25 43° WNW 06:38:24 10° N
YAOGAN 1 3.3 06:29:28 10° NNE 06:33:44 58° E 06:38:00 10° S
MSX 4.4 06:31:21 10° N 06:36:25 33° WNW 06:41:28 10° SW
Cosmos 1842 Rocket 3.6 06:32:40 10° SSW 06:37:05 62° W 06:41:33 10° N
CSL-04 Debris 4.2 06:31:44 10° NNE 06:37:15 80° WNW 06:42:45 10° SSW
DELTA 2 R/B (1) 4.3 06:33:17 10° W 06:38:35 44° SSW 06:43:50 10° SE
Shenzhou-11 Module 2.0 06:36:40 10° W 06:39:40 64° N 06:42:40 10° ENE
ALOS 3.6 06:37:52 10° NNE 06:42:23 46° E 06:46:52 10° S
Cosmos 304 Rocket 3.8 06:39:30 10° NNW 06:44:17 70° WSW 06:49:02 10° S
Meteor 2-15 4.4 06:38:26 10° N 06:44:31 82° W 06:50:33 10° S
Cosmos 1484 Rocket 3.5 06:44:35 10° N 06:47:50 29° WNW 06:51:05 10° SW
CZ-4C R/B 3.8 06:41:49 10° NW 06:48:08 31° WSW 06:54:54 10° S
Tiangong 2 1.2 06:45:18 10° WSW 06:48:29 79° SSE 06:51:42 10° ENE
SL-27 R/B 3.1 06:45:57 10° NW 06:49:22 39° WSW 06:52:47 10° S
Cosmos 1814 Rocket 4.0 06:46:13 10° NNW 06:51:27 80° WSW 06:56:36 10° SSE
Cosmos 468 Rocket 4.3 06:47:21 10° NNW 06:52:18 47° WSW 06:57:17 10° S
Cosmos 2297 3.7 06:46:45 10° SSW 06:52:29 75° WNW 06:58:14 10° NNE
Nadezhda 3 Rocket 4.2 06:47:20 10° NNW 06:53:32 56° W 06:59:39 10° SSW
